Location: Agadir Irigdalene
(31.2522°N, 8.7797°W)
Time: 06:09:35
(UTC+00:00)

Meteor 1-25 Rocket - Pass Details

Date: 01 December 2020
Orbit: 837 x 890 km, 81.2° (Epoch: 25 January)

Event Time Altitude Azimuth Distance (km) Brightness Sun altitude
Rises 18:17:34 0° 350° (N) 3,429 7.3 -9.8°
Reaches altitude 10° 18:19:59 10° 349° (N) 2,498 6.6 -10.3°
Maximum altitude 18:25:39 78° 264° (W) 889 4.4 -11.4°
Drops below altitude 10° 18:31:22 10° 179° (S) 2,520 6.9 -12.6°
Sets 18:33:49 0° 178° (S) 3,462 7.6 -13.1°
